Regional Weather Roundup
Issued by NWS

Home | Current Version | Previous Version | Graphics & Text | Print | Product List | Glossary On
Versions: 1 2 3 4 5 6 7 8 9 10 11 12 13 14 15 16 17 18 19 20 21 22 23 24 25 26 27 28
000
ASUS45 KSLC 290410
RWRUT

UTAH REGIONAL WEATHER ROUNDUP
NATIONAL WEATHER SERVICE SALT LAKE CITY UT
1000 PM MDT THU APR 28 2016

UTZ001>011-023>025-290500-

NORTHERN UTAH

CITY           SKY/WX    TMP DP  RH WIND       PRES   REMARKS
BRIGHAM CITY   CLOUDY    49  27  42 E12G29    29.85R
HILL AFB       PTCLDY    45  29  53 E30G38    29.82R
LOGAN          PTCLDY    48  29  47 E23       29.86R
OGDEN          PTCLDY    48  29  47 NE9G23    29.82R
PROVO AIRPORT  CLOUDY    48  34  57 N10       29.81R
SALT LAKE CITY MOCLDY    51  32  48 NE7       29.83R
VERNAL         CLOUDY    41  33  73 N10       29.87S
WENDOVER       CLOUDY    50  43  76 NE3       29.84R
HEBER CITY     CLOUDY    41  32  70 N16       29.86R

$$

UTZ012>022-026-027-290500-

SOUTHERN/CENTRAL UTAH

CITY           SKY/WX    TMP DP  RH WIND       PRES   REMARKS
BLANDING       CLOUDY    39  33  79 CALM      29.89R
BRYCE CANYON   LGT SNOW  33  31  92 NW6       29.84R FOG     WCI  28
CEDAR CITY     LGT RAIN  40  38  93 NW3       29.83R
DELTA          CLOUDY    43  43 100 CALM      29.82R
MILFORD        CLOUDY    43  40  89 N6        29.83R
MOAB/CYNLANDS  CLOUDY    46  41  82 E9        29.79R
PRICE          MOCLDY    40  35  83 E17G23    29.84R WCI  31
ST GEORGE      CLOUDY    54  43  66 N7        29.84R
KANAB          CLOUDY    45  43  93 SW6       29.87

$$

REGIONAL REPORTS     COLORADO/ARIZONA

CITY           SKY/WX    TMP DP  RH WIND       PRES   REMARKS
CRAIG, CO      CLOUDY    35  32  88 SW6       29.93R WCI  30
GRAND JUNCTION PTCLDY    44  39  82 CALM      29.80S
RIFLE          LGT RAIN  47  36  65 NW8       29.85R
MONTROSE       CLOUDY    44  35  70 E12       29.86S
CORTEZ         CLOUDY    40  33  76 CALM      29.84R
PAGE, AZ       LGT RAIN  50  40  68 W5        29.80R
GRAND CANYON   CLOUDY    38  36  92 SW7       29.86R WCI  33
KINGMAN        LGT RAIN  49  46  90 NE9       29.85R
FLAGSTAFF      PTCLDY    33  30  88 W3        29.87R

$$

REGIONAL REPORTS    NEVADA/IDAHO/WYOMING

CITY           SKY/WX    TMP DP  RH WIND       PRES   REMARKS
LAS VEGAS, NV  CLOUDY    57  51  80 W3        29.77R
ELY            MOCLDY    40  35  83 N7        29.89R
ELKO           CLOUDY    47  37  68 SW7       29.91R
POCATELLO, ID  CLEAR     43  31  62 N7        29.86R
BURLEY         LGT RAIN  47  40  76 SW10      29.87R
EVANSTON, WY   FLURRIES  32  28  85 NE12      29.92R WCI  23
ROCK SPRINGS   CLOUDY    32  26  78 NE18      29.96R WCI  20

$$




USA.gov is the U.S. government's official web portal to all federal, state and local government web resources and services.